Regional Weather Roundup
Issued by NWS Northern Indiana

Home | Current Version | Previous Version | Graphics & Text | Print | Product List | Glossary On
Versions: 1 2 3 4 5 6 7 8 9 10 11 12 13 14 15 16 17 18 19 20 21 22 23 24 25 26 27 28 29 30 31 32 33 34 35 36 37 38 39 40 41 42 43 44 45 46 47 48 49 50
476
ASUS43 KIWX 251100
RWRIWX

KIWX WEATHER ROUNDUP
NATIONAL WEATHER SERVICE NORTHERN INDIANA
700 AM EDT THU MAY 25 2017

NOTE: "FAIR" INDICATES FEW OR NO CLOUDS BELOW 12,000 FEET WITH NO
SIGNIFICANT WEATHER AND/OR OBSTRUCTIONS TO VISIBILITY.

* THESE STATIONS ARE NOT UNDER NWS QUALITY CONTROL. THEY ALSO MAY NOT
  REPORT WEATHER SUCH AS PRECIPITATION OR FOG.

INZ001>027-251200-
NORTHERN INDIANA

CITY           SKY/WX    TMP DP  RH WIND       PRES   REMARKS
GARY*          CLOUDY    52  50  93 NW17G29   29.56R
MICHIGAN CITY* CLOUDY    50  50 100 NW9       29.53R
SOUTH BEND     CLOUDY    56  56 100 N12       29.49R
GOSHEN         CLOUDY    58  54  86 N16       29.46R
MONTICELLO*    CLOUDY    53  51  95 NW15G21   29.47R FOG
ANGOLA*        CLOUDY    57  46  67 N6        29.44R
FORT WAYNE     LGT RAIN  60  58  92 N12       29.40R FOG
PERU/GRISSOM   DRIZZLE   59  59 100 N14       29.42R

$$
INZ028>050-251200-
CENTRAL INDIANA

CITY           SKY/WX    TMP DP  RH WIND       PRES   REMARKS
LAFAYETTE      CLOUDY    53  53 100 NW13G21   29.48R FOG
KOKOMO*        LGT RAIN  59  57  93 NW14      29.43R
MUNCIE*        LGT RAIN  59  57  93 NW3       29.38R FOG
INDIANAPOLIS   CLOUDY    56  54  93 NW15      29.44R FOG

$$
MIZ043>046-050>051-056>058-064>065-071>073-077>080-251200-
SOUTHWEST LOWER MICHIGAN

CITY           SKY/WX    TMP DP  RH WIND       PRES   REMARKS
BATTLE CREEK   CLOUDY    56  56 100 NE9       29.49R FOG
BENTON HARBOR  CLOUDY    57  54  89 CALM      29.51R
COLDWATER*     CLOUDY    57  57 100 N9        29.46R FOG
HILLSDALE*     CLOUDY    57  55  94 NE5       29.45R FOG
HOLLAND        CLOUDY    58  54  86 N6        29.53R
GRAND RAPIDS   CLOUDY    56  56 100 NE10      29.52R
KALAMAZOO      CLOUDY    57  53  86 NE7       29.49R FOG
STURGIS*       CLOUDY    56  56  97 NE8       29.46R
THREE RIVERS*  CLOUDY    57  55  95 NE9       29.48R

$$
OHZ001>008-015>018-024>025-251200-
NORTHWEST OHIO

CITY           SKY/WX    TMP DP  RH WIND       PRES   REMARKS
DEFIANCE       CLOUDY    59  57  93 NE8       29.41R
FINDLAY        CLOUDY    61  56  83 E6        29.39R
TOLEDO EXPRESS CLOUDY    58  58 100 NE8       29.42R
TOLEDO METCALF CLOUDY    60  59  96 N5        29.43R
LIMA           CLOUDY    59  59 100 E3        29.39R

$$
AND FOR LAKE MICHIGAN COASTAL AND OPEN LAKE BUOY OBSERVATIONS

STATION/POSITION TEMP    WIND        PRES    VSBY  WAVE
                 AIR SEA DIR/SP/G                  HT/PER
                 (F)     (DEG/KT/KT) (MB)    (MI)  (FT/S)
CALUMET HARBOR    52     330/ 13/ 19 1000.3R
MICHIGAN CITY     49     330/ 23/ 25   N/A
BURNS HARBOR      50     340/ 18/ 24 1000.3R
SOUTH LAKE BUOY   46 45  360/ 14/ 17 1000.5          3/ 5
4 MI NW BRIDGMAN  54 56   20/ 14/ 19  999.8R         5/ 5
MICHIGAN CITY     49 52  340/ 17/ 21   N/A           6/ 6

$$
&&




USA.gov is the U.S. government's official web portal to all federal, state and local government web resources and services.